Location: Cactus School
(34.5700°N, 118.0931°W)
Time: 08:11:25
(UTC-07:00)

S-56A Canister/Altair - Pass Details

Date: 15 April 2024
Orbit: 638 x 2488 km, 38.9° (Epoch: 29 May)

Event Time Altitude Azimuth Distance (km) Brightness Sun altitude
Rises 20:27:25 0° 270° (W) 3,681 12.4 -13.1°
Reaches altitude 10° 20:29:41 10° 273° (W) 2,918 11.7 -13.5°
Maximum altitude 20:36:56 68° 356° (N) 1,521 9.1 -14.9°
Enters shadow 20:47:59 11° 79° (E) 4,328 10.9 -16.9°
Drops below altitude 10° 20:48:10 10° 79° (E) 4,384 - -17.0°
Sets 20:52:20 0° 82° (E) 5,635 - -17.7°
